TimeAKDT,TemperatureF,Dew PointF,Humidity,Sea Level PressureIn,VisibilityMPH,Wind Direction,Wind SpeedMPH,Gust SpeedMPH,PrecipitationIn,Events,Conditions,WindDirDegrees,DateUTC
12:33 AM,30.2,28.4,93,29.76,1.5,Calm,Calm,-,0.00,Snow,Light Snow,0,2013-03-21 08:33:00
12:38 AM,30.2,28.4,93,29.76,1.0,North,3.5,-,0.00,Snow,Light Snow,360,2013-03-21 08:38:00
12:46 AM,30.2,28.4,93,29.76,0.5,Calm,Calm,-,0.00,Fog-Snow,Snow,0,2013-03-21 08:46:00
12:53 AM,30.9,28.9,92,29.77,0.2,Variable,3.5,-,0.00,Fog-Snow,Heavy Snow,0,2013-03-21 08:53:00
1:01 AM,30.2,28.4,93,29.76,0.8,Calm,Calm,-,0.00,Snow,Light Snow,0,2013-03-21 09:01:00
1:04 AM,30.2,28.4,93,29.76,1.5,South,3.5,-,0.00,Snow,Light Snow,170,2013-03-21 09:04:00
1:15 AM,30.2,28.4,93,29.76,3.0,SSE,3.5,-,0.00,Snow,Light Snow,160,2013-03-21 09:15:00
1:35 AM,30.2,28.4,93,29.77,10.0,Calm,Calm,-,0.00,,Mostly Cloudy,0,2013-03-21 09:35:00
1:53 AM,28.9,27.0,92,29.78,10.0,Calm,Calm,-,0.00,,Scattered Clouds,0,2013-03-21 09:53:00
2:13 AM,30.2,28.4,93,29.79,5.0,SW,3.5,-,0.00,Snow,Light Snow,230,2013-03-21 10:13:00
2:18 AM,30.2,28.4,93,29.79,2.5,Calm,Calm,-,0.00,Snow,Light Snow,0,2013-03-21 10:18:00
2:41 AM,30.2,28.4,93,29.79,4.0,Calm,Calm,-,0.00,Snow,Light Snow,0,2013-03-21 10:41:00
2:53 AM,28.9,27.0,92,29.80,9.0,Calm,Calm,-,0.00,,Mostly Cloudy,0,2013-03-21 10:53:00
3:09 AM,28.4,26.6,93,29.80,10.0,Calm,Calm,-,N/A,,Scattered Clouds,0,2013-03-21 11:09:00
3:36 AM,30.2,26.6,86,29.81,10.0,South,5.8,-,0.00,Snow,Light Snow,190,2013-03-21 11:36:00
3:53 AM,30.9,28.9,92,29.82,1.5,SSE,5.8,-,0.00,Snow,Light Snow,160,2013-03-21 11:53:00
4:00 AM,30.2,30.2,100,29.82,1.0,WSW,9.2,-,0.00,Snow,Light Snow,240,2013-03-21 12:00:00
4:04 AM,30.2,28.4,93,29.82,2.0,Variable,4.6,-,0.00,Snow,Light Snow,0,2013-03-21 12:04:00
4:11 AM,30.2,30.2,100,29.83,3.0,SSW,6.9,-,0.00,Snow,Light Snow,210,2013-03-21 12:11:00
4:17 AM,32.0,30.2,93,29.83,0.8,SSW,5.8,-,0.00,Snow,Light Snow,210,2013-03-21 12:17:00
4:29 AM,30.2,30.2,100,29.83,0.8,Calm,Calm,-,0.00,Snow,Light Snow,0,2013-03-21 12:29:00
4:32 AM,30.2,30.2,100,29.83,1.2,Calm,Calm,-,0.00,Snow,Light Snow,0,2013-03-21 12:32:00
4:34 AM,30.2,30.2,100,29.83,2.0,Calm,Calm,-,0.00,Snow,Light Snow,0,2013-03-21 12:34:00
4:39 AM,30.2,28.4,93,29.83,8.0,Calm,Calm,-,0.00,Snow,Light Snow,0,2013-03-21 12:39:00
4:47 AM,30.2,28.4,93,29.83,10.0,Calm,Calm,-,0.00,,Overcast,0,2013-03-21 12:47:00
4:53 AM,30.0,28.0,92,29.84,10.0,SSE,3.5,-,0.00,,Overcast,150,2013-03-21 12:53:00
5:34 AM,30.2,28.4,93,29.85,7.0,SSW,3.5,-,0.00,Snow,Light Snow,210,2013-03-21 13:34:00
5:49 AM,30.2,28.4,93,29.86,2.5,North,5.8,-,0.00,Snow,Light Snow,350,2013-03-21 13:49:00
5:51 AM,30.2,28.4,93,29.86,1.2,NNW,5.8,-,0.00,Snow,Light Snow,340,2013-03-21 13:51:00
5:53 AM,30.9,28.9,92,29.86,1.0,North,5.8,-,0.00,Snow,Light Snow,350,2013-03-21 13:53:00
5:56 AM,30.2,28.4,93,29.86,0.8,NNE,3.5,-,0.00,Snow,Light Snow,20,2013-03-21 13:56:00
6:01 AM,30.2,28.4,93,29.86,1.5,ENE,3.5,-,0.00,Snow,Light Snow,60,2013-03-21 14:01:00
6:05 AM,30.2,28.4,93,29.86,3.0,Calm,Calm,-,0.00,Snow,Light Snow,0,2013-03-21 14:05:00
6:13 AM,30.2,28.4,93,29.86,8.0,Calm,Calm,-,0.00,,Overcast,0,2013-03-21 14:13:00
6:53 AM,30.0,28.0,92,29.88,4.0,South,3.5,-,0.00,Snow,Light Snow,180,2013-03-21 14:53:00
6:56 AM,30.2,28.4,93,29.88,2.0,South,4.6,-,0.00,Snow,Light Snow,180,2013-03-21 14:56:00
6:58 AM,30.2,28.4,93,29.88,1.2,South,4.6,-,0.00,Snow,Light Snow,180,2013-03-21 14:58:00
7:06 AM,30.2,28.4,93,29.88,2.5,Variable,3.5,-,0.00,Snow,Light Snow,0,2013-03-21 15:06:00
7:09 AM,30.2,28.4,93,29.88,6.0,South,3.5,-,0.00,Snow,Light Snow,190,2013-03-21 15:09:00
7:17 AM,30.2,26.6,86,29.88,9.0,SSE,4.6,-,0.00,,Overcast,160,2013-03-21 15:17:00
7:53 AM,30.0,28.0,92,29.90,10.0,Calm,Calm,-,0.00,,Overcast,0,2013-03-21 15:53:00
8:45 AM,30.2,28.4,93,29.90,10.0,Variable,3.5,-,N/A,,Mostly Cloudy,0,2013-03-21 16:45:00
8:53 AM,30.9,28.9,92,29.91,10.0,Calm,Calm,-,N/A,,Mostly Cloudy,0,2013-03-21 16:53:00
9:53 AM,35.1,30.0,82,29.94,10.0,Calm,Calm,-,0.06,,Scattered Clouds,0,2013-03-21 17:53:00
10:26 AM,33.8,28.4,81,29.95,6.0,Calm,Calm,-,0.06,Snow,Light Snow,0,2013-03-21 18:26:00
10:34 AM,35.6,28.4,75,29.95,9.0,Variable,4.6,-,0.07,,Mostly Cloudy,0,2013-03-21 18:34:00
10:53 AM,35.1,28.0,76,29.95,10.0,Variable,3.5,-,0.09,,Overcast,0,2013-03-21 18:53:00
11:53 AM,35.1,28.9,78,29.96,10.0,SSW,5.8,-,0.02,,Overcast,200,2013-03-21 19:53:00
12:26 PM,35.6,28.4,75,29.97,1.5,Variable,4.6,-,0.00,Snow,Light Snow,0,2013-03-21 20:26:00
12:28 PM,33.8,28.4,81,29.97,0.8,Variable,5.8,-,0.00,Snow,Light Snow,0,2013-03-21 20:28:00
12:42 PM,33.8,30.2,87,29.97,0.5,Variable,4.6,-,0.00,Fog-Snow,Snow,0,2013-03-21 20:42:00
12:51 PM,33.8,30.2,87,29.97,1.0,Calm,Calm,-,0.00,Snow,Light Snow,0,2013-03-21 20:51:00
12:53 PM,33.1,30.0,89,29.98,1.0,Variable,3.5,-,0.01,Snow,Light Snow,0,2013-03-21 20:53:00
1:02 PM,33.8,30.2,87,29.98,0.8,Variable,3.5,-,0.00,Snow,Light Snow,0,2013-03-21 21:02:00
1:16 PM,35.6,30.2,81,29.98,1.8,Variable,6.9,-,0.02,Snow,Light Snow,0,2013-03-21 21:16:00
1:18 PM,35.6,32.0,87,29.98,4.0,Variable,4.6,-,0.03,Snow,Light Snow,0,2013-03-21 21:18:00
1:26 PM,35.6,30.2,81,29.98,9.0,Variable,6.9,-,0.03,,Overcast,0,2013-03-21 21:26:00
1:43 PM,33.8,30.2,87,29.98,2.0,SE,6.9,-,0.04,Snow,Light Snow,140,2013-03-21 21:43:00
1:47 PM,33.8,30.2,87,29.98,1.2,SSE,8.1,-,0.04,Snow,Light Snow,150,2013-03-21 21:47:00
1:53 PM,34.0,30.9,89,29.99,0.5,Variable,4.6,-,0.04,Fog-Snow,Snow,0,2013-03-21 21:53:00
2:00 PM,33.8,30.2,87,29.99,0.5,Variable,5.8,-,0.00,Fog-Snow,Snow,0,2013-03-21 22:00:00
2:09 PM,33.8,32.0,93,29.99,1.8,South,8.1,-,0.01,Snow,Light Snow,170,2013-03-21 22:09:00
2:11 PM,33.8,30.2,87,29.99,2.0,South,8.1,-,0.01,Snow,Light Snow,180,2013-03-21 22:11:00
2:16 PM,33.8,30.2,87,29.99,1.2,SSE,8.1,-,0.01,Snow,Light Snow,150,2013-03-21 22:16:00
2:20 PM,33.8,30.2,87,29.99,0.8,Variable,3.5,-,0.01,Snow,Light Snow,0,2013-03-21 22:20:00
2:30 PM,33.8,30.2,87,29.99,0.8,Variable,5.8,-,0.03,Snow,Light Snow,0,2013-03-21 22:30:00
2:42 PM,33.8,32.0,93,29.99,0.5,SSE,5.8,-,0.04,Fog-Snow,Snow,160,2013-03-21 22:42:00
2:53 PM,35.1,32.0,89,29.99,1.0,Variable,5.8,-,0.05,Snow,Light Snow,0,2013-03-21 22:53:00
2:58 PM,35.6,33.8,93,29.98,2.5,Variable,4.6,-,0.00,Snow,Light Snow,0,2013-03-21 22:58:00
3:02 PM,35.6,32.0,87,29.98,8.0,Variable,6.9,-,0.00,Snow,Light Snow,0,2013-03-21 23:02:00
3:13 PM,35.6,32.0,87,29.98,10.0,Variable,4.6,-,0.00,,Mostly Cloudy,0,2013-03-21 23:13:00
3:40 PM,35.6,30.2,81,29.98,2.5,Variable,5.8,-,0.00,Snow,Light Snow,0,2013-03-21 23:40:00
3:44 PM,33.8,30.2,87,29.99,1.5,WNW,8.1,-,0.00,Snow,Light Snow,300,2013-03-21 23:44:00
4:05 PM,33.8,32.0,93,30.01,1.8,North,10.4,-,0.00,Snow,Light Snow,350,2013-03-22 00:05:00
4:08 PM,33.8,32.0,93,30.01,1.2,NNE,11.5,-,0.00,Snow,Light Snow,20,2013-03-22 00:08:00
4:12 PM,33.8,33.8,100,30.01,1.5,NNE,10.4,-,0.00,Snow,Light Snow,20,2013-03-22 00:12:00
4:20 PM,33.8,32.0,93,30.02,1.2,North,9.2,-,0.01,Snow,Light Snow,10,2013-03-22 00:20:00
4:32 PM,35.6,33.8,93,30.03,2.0,North,6.9,-,0.03,Snow,Light Snow,10,2013-03-22 00:32:00
4:40 PM,35.6,33.8,93,30.04,9.0,North,4.6,-,0.04,,Mostly Cloudy,10,2013-03-22 00:40:00
4:53 PM,35.1,33.1,92,30.05,10.0,Calm,Calm,-,0.05,,Overcast,0,2013-03-22 00:53:00
5:02 PM,35.6,33.8,93,30.05,10.0,North,3.5,-,0.01,,Overcast,10,2013-03-22 01:02:00
5:12 PM,35.6,33.8,93,30.06,9.0,NNW,3.5,-,0.01,Snow,Light Snow,330,2013-03-22 01:12:00
5:19 PM,35.6,33.8,93,30.06,9.0,Calm,Calm,-,0.01,,Overcast,0,2013-03-22 01:19:00
5:53 PM,36.0,33.1,89,30.09,10.0,Calm,Calm,-,0.01,Rain,Light Rain,0,2013-03-22 01:53:00
6:08 PM,35.6,32.0,87,30.09,10.0,Calm,Calm,-,0.00,,Mostly Cloudy,0,2013-03-22 02:08:00
6:16 PM,35.6,32.0,87,30.10,10.0,Calm,Calm,-,0.00,,Overcast,0,2013-03-22 02:16:00
6:53 PM,34.0,32.0,92,30.13,10.0,NNW,3.5,-,0.00,,Overcast,330,2013-03-22 02:53:00
7:53 PM,33.1,30.9,92,30.17,10.0,Calm,Calm,-,0.00,,Mostly Cloudy,0,2013-03-22 03:53:00
7:57 PM,33.8,30.2,87,30.17,10.0,Calm,Calm,-,N/A,,Mostly Cloudy,0,2013-03-22 03:57:00
8:07 PM,33.8,30.2,87,30.18,10.0,Calm,Calm,-,N/A,,Mostly Cloudy,0,2013-03-22 04:07:00
8:23 PM,33.8,30.2,87,30.18,7.0,North,4.6,-,0.00,Snow,Light Snow,10,2013-03-22 04:23:00
8:53 PM,33.1,30.0,89,30.20,10.0,NNE,3.5,-,0.00,,Overcast,30,2013-03-22 04:53:00
9:53 PM,30.9,28.9,92,30.22,10.0,NNE,5.8,-,N/A,,Scattered Clouds,30,2013-03-22 05:53:00
10:53 PM,30.9,28.0,89,30.24,10.0,Calm,Calm,-,N/A,,Mostly Cloudy,0,2013-03-22 06:53:00
11:53 PM,30.0,27.0,88,30.25,10.0,Calm,Calm,-,N/A,,Mostly Cloudy,0,2013-03-22 07:53:00